Stations météo

réclame
Mon MeteoGroup
Aguilas, Espagne (8432): Température de l'air & dewpoint: 19.11.2017 02:00:00 - 25.11.2017 02:00:00 (CET)Aguilas, Espagne (8432): Vitesse du vent & gusts: 19.11.2017 02:00:00 - 25.11.2017 02:00:00 (CET)Aguilas, Espagne (8432): Direction du vent: 19.11.2017 02:00:00 - 25.11.2017 02:00:00 (CET)Aguilas, Espagne (8432): reduced air pressure: 19.11.2017 02:00:00 - 25.11.2017 02:00:00 (CET)Aguilas, Espagne (8432): visibility: 19.11.2017 02:00:00 - 25.11.2017 02:00:00 (CET)Aguilas, Espagne (8432): Ensoleillement: 19.11.2017 02:00:00 - 25.11.2017 02:00:00 (CET)Aguilas, Espagne (8432): Quantités de précipitations: 19.11.2017 02:00:00 - 25.11.2017 02:00:00 (CET)
Date & Time tt [°C] td [°C] ff [km/h] ff [knt] fx [km/h] fx [knt] dd ppp [hPa] vv [km] sd [min] rr [mm]
25.11.2017 02:00:00 11,9 7,0 0 0 6 3 N 1019,9 20 0 0,0
25.11.2017 01:00:00 13,5 7,3 5 3 10 5 NNE 1020,0 20 0 -
25.11.2017 00:00:00 13,2 7,1 2 1 10 5 NNE 1020,5 20 0 0,0
24.11.2017 23:00:00 13,8 6,4 3 2 12 6 NE 1020,5 20 0 0,0
24.11.2017 22:00:00 14,3 6,8 7 4 11 6 NE 1020,6 20 0 0,0
24.11.2017 21:00:00 13,5 7,0 3 2 6 3 NE 1020,7 20 0 0,0
24.11.2017 20:00:00 15,0 8,0 3 1 8 5 NE 1020,8 20 0 0,0
24.11.2017 19:00:00 16,4 8,7 5 3 10 5 N 1020,3 20 0 -
24.11.2017 18:00:00 18,6 9,7 1 1 7 4 SSW 1020,1 20 25 0,0
24.11.2017 17:00:00 19,6 9,4 4 2 10 5 SSW 1020,1 20 36 0,0
24.11.2017 16:00:00 20,6 7,3 6 3 11 6 SSW 1019,9 20 60 0,0
24.11.2017 15:00:00 20,3 8,7 7 4 15 8 S 1020,1 20 60 0,0
24.11.2017 14:00:00 20,1 7,8 8 5 14 7 S 1020,7 20 60 0,0
24.11.2017 13:00:00 20,4 8,7 8 4 13 7 S 1021,0 20 60 -
24.11.2017 12:00:00 20,4 10,2 4 2 8 5 S 1021,8 20 48 0,0
24.11.2017 11:00:00 20,2 11,7 5 3 10 5 S 1022,1 20 60 0,0
24.11.2017 10:00:00 18,7 12,0 4 2 8 5 NE 1021,7 20 60 0,0
24.11.2017 09:00:00 13,6 8,3 6 4 10 5 N 1021,5 20 35 0,0
24.11.2017 08:00:00 11,5 7,4 5 3 10 5 NE 1021,1 20 0 0,0
24.11.2017 07:00:00 10,8 7,0 3 1 9 5 ENE 1020,7 20 0 -
24.11.2017 06:00:00 11,2 7,7 3 2 8 5 NE 1020,7 20 0 0,0
24.11.2017 05:00:00 12,3 8,5 3 2 14 7 NW 1020,6 16 0 0,0
24.11.2017 04:00:00 12,3 8,0 2 1 10 5 NE 1020,5 20 0 0,0
24.11.2017 03:00:00 12,5 8,5 2 1 6 4 N 1020,8 20 0 0,0
24.11.2017 02:00:00 12,3 7,6 1 1 9 5 N 1020,8 20 0 0,0
24.11.2017 01:00:00 13,9 8,9 5 3 9 5 N 1021,1 20 0 -
24.11.2017 00:00:00 13,2 6,7 1 1 9 5 ENE 1021,3 20 0 0,0
23.11.2017 23:00:00 14,5 7,6 3 2 10 6 NNE 1021,3 20 0 0,0
23.11.2017 22:00:00 15,2 7,7 7 4 13 7 NE 1021,0 20 0 0,0
23.11.2017 21:00:00 15,5 8,5 5 3 11 6 NNE 1021,0 20 0 0,0
23.11.2017 20:00:00 14,1 8,7 1 1 6 4 NNW 1020,9 19 0 0,0
23.11.2017 19:00:00 16,4 10,9 5 3 8 4 NNE 1020,4 20 0 -
23.11.2017 18:00:00 17,8 12,0 3 1 9 5 WNW 1020,0 17 6 0,0
23.11.2017 17:00:00 19,4 11,2 4 2 13 7 SW 1019,7 20 58 0,0
23.11.2017 16:00:00 20,1 9,9 6 3 16 9 SSW 1019,4 20 60 0,0
23.11.2017 15:00:00 20,5 4,5 9 5 15 8 S 1019,4 20 60 0,0
23.11.2017 14:00:00 20,1 4,5 9 5 15 8 S 1019,7 20 60 0,0
23.11.2017 13:00:00 20,4 9,0 7 4 11 6 S 1019,9 20 60 -
23.11.2017 12:00:00 20,4 8,4 5 3 10 5 SSE 1020,3 20 60 0,0
23.11.2017 11:00:00 19,5 8,8 5 3 9 5 S 1020,4 20 60 0,0
23.11.2017 10:00:00 18,5 10,3 3 2 6 3 SE 1019,9 20 60 0,0
23.11.2017 09:00:00 13,6 6,8 3 1 11 6 N 1019,3 20 36 0,0
23.11.2017 08:00:00 11,2 4,6 5 3 11 6 NE 1018,5 14 0 0,0
23.11.2017 07:00:00 11,4 4,6 6 4 14 8 NNE 1017,7 20 0 -
23.11.2017 06:00:00 9,9 4,5 5 3 11 6 N 1017,2 20 0 0,0
23.11.2017 05:00:00 11,2 6,5 6 3 11 6 NNE 1016,7 20 0 0,0
23.11.2017 04:00:00 10,9 5,6 4 2 12 6 NNE 1016,8 20 0 0,0
23.11.2017 03:00:00 11,3 6,7 3 2 11 6 N 1016,7 20 0 0,0
23.11.2017 02:00:00 11,3 6,4 4 2 10 5 NNE 1016,8 20 0 0,0
23.11.2017 01:00:00 10,6 6,1 4 2 11 6 ENE 1016,4 20 0 -
23.11.2017 00:00:00 11,3 7,4 4 2 13 7 WNW 1016,5 20 0 0,0
22.11.2017 23:00:00 12,1 8,4 6 4 10 5 NNW 1016,5 20 0 0,0
22.11.2017 22:00:00 12,5 8,8 6 3 10 5 N 1016,4 20 0 0,0
22.11.2017 21:00:00 13,1 8,9 6 3 9 5 N 1016,3 20 0 0,0
22.11.2017 20:00:00 14,2 9,7 8 4 12 7 N 1016,2 20 0 0,0
22.11.2017 19:00:00 15,2 9,6 7 4 11 6 N 1015,9 20 0 -
22.11.2017 18:00:00 17,2 10,3 3 2 7 4 S 1015,8 20 25 0,0
22.11.2017 17:00:00 18,6 10,6 3 2 12 6 S 1015,7 20 60 0,0
22.11.2017 16:00:00 19,3 10,5 5 3 14 7 SSW 1015,6 20 60 0,0
22.11.2017 15:00:00 19,3 10,0 9 5 14 8 S 1015,8 20 60 0,0
22.11.2017 14:00:00 19,5 10,5 7 4 15 8 S 1016,4 20 60 0,0
22.11.2017 13:00:00 19,5 11,6 8 4 14 7 S 1016,9 20 60 -
22.11.2017 12:00:00 17,9 11,4 4 2 10 5 SE 1017,5 20 42 0,0
22.11.2017 11:00:00 18,6 11,2 5 3 10 6 SE 1018,2 20 58 0,0
22.11.2017 10:00:00 17,4 11,0 2 1 8 4 WSW 1018,1 20 60 0,0
22.11.2017 09:00:00 11,7 8,1 5 3 7 4 N 1018,0 20 36 0,0
22.11.2017 08:00:00 10,3 7,0 2 1 9 5 N 1017,6 20 0 0,0
22.11.2017 07:00:00 10,7 7,1 3 2 9 5 N 1017,5 20 0 -
22.11.2017 06:00:00 10,5 6,4 3 2 9 5 NNW 1017,6 20 0 0,0
22.11.2017 05:00:00 10,4 5,8 2 1 6 3 NNE 1017,8 20 0 0,0
22.11.2017 04:00:00 11,0 5,8 3 2 11 6 NNE 1018,1 20 0 0,0
22.11.2017 03:00:00 12,7 6,5 6 3 12 7 NNE 1018,8 20 0 0,0
22.11.2017 02:00:00 12,1 5,5 4 2 13 7 NE 1019,2 20 0 0,0
22.11.2017 01:00:00 13,2 4,1 10 5 13 7 NE 1019,5 20 0 -
22.11.2017 00:00:00 12,2 4,1 8 4 10 6 N 1019,7 20 0 0,0
21.11.2017 23:00:00 11,7 5,3 6 3 11 6 N 1019,7 20 0 0,0
21.11.2017 22:00:00 11,4 5,8 3 2 9 5 NW 1019,9 20 0 0,0
21.11.2017 21:00:00 12,5 5,6 6 4 10 5 N 1020,4 20 0 0,0
21.11.2017 20:00:00 13,3 7,1 6 3 9 5 NNW 1020,7 20 0 0,0
21.11.2017 19:00:00 15,6 8,8 3 2 9 5 NNE 1020,5 20 0 -
21.11.2017 18:00:00 18,1 9,4 2 1 8 5 SW 1020,2 20 40 0,0
21.11.2017 17:00:00 19,7 8,7 4 2 11 6 SSE 1020,1 20 60 0,0
21.11.2017 16:00:00 19,8 9,7 7 4 14 7 SSE 1020,4 20 60 0,0
21.11.2017 15:00:00 20,1 10,2 7 4 14 7 SSE 1020,7 20 60 0,0
21.11.2017 14:00:00 20,0 11,0 7 4 16 9 SSE 1021,1 20 60 0,0
21.11.2017 13:00:00 20,0 11,8 8 4 14 8 S 1021,9 20 60 -
21.11.2017 12:00:00 19,4 10,4 7 4 11 6 S 1022,6 20 60 0,0
21.11.2017 11:00:00 19,2 12,0 3 2 8 5 SSE 1022,8 18 60 0,0
21.11.2017 10:00:00 17,9 13,2 2 1 8 5 SE 1022,5 19 60 0,2
21.11.2017 09:00:00 14,1 11,4 4 2 11 6 NE 1022,4 20 39 0,0
21.11.2017 08:00:00 10,5 8,3 4 2 8 5 NE 1022,0 14 0 0,0
21.11.2017 07:00:00 11,2 8,8 1 1 10 5 NW 1022,0 6 0 -
21.11.2017 06:00:00 11,7 9,3 4 2 11 6 NNE 1022,3 3,7 0 0,0
21.11.2017 05:00:00 10,9 8,0 2 1 9 5 ENE 1022,3 14 0 0,0
21.11.2017 04:00:00 12,0 8,8 2 1 11 6 WNW 1022,6 10 0 0,0
21.11.2017 03:00:00 11,2 8,1 3 2 7 4 N 1023,0 20 0 0,0
21.11.2017 02:00:00 11,1 7,4 0 0 8 5 N 1022,8 20 0 0,0
21.11.2017 01:00:00 11,6 7,8 3 2 7 4 N 1023,1 20 0 -
21.11.2017 00:00:00 11,9 7,8 3 2 8 5 N 1023,1 20 0 0,0
20.11.2017 23:00:00 12,5 8,3 6 3 9 5 N 1023,4 20 0 0,0
20.11.2017 22:00:00 13,0 8,7 4 2 10 5 NNE 1023,4 20 0 0,0
20.11.2017 21:00:00 13,5 9,2 3 2 9 5 NNE 1023,4 20 0 0,0
20.11.2017 20:00:00 14,4 10,2 3 1 8 5 N 1023,2 20 0 0,0
20.11.2017 19:00:00 15,8 11,3 5 3 8 4 N 1022,7 20 0 -
20.11.2017 18:00:00 17,7 12,1 3 1 9 5 SSW 1022,3 20 41 0,0
20.11.2017 17:00:00 19,1 11,9 5 3 13 7 S 1022,2 20 60 0,0
20.11.2017 16:00:00 19,6 11,9 5 3 13 7 SSW 1022,3 20 60 0,0
20.11.2017 15:00:00 19,5 12,0 7 4 16 8 SSE 1022,6 20 60 0,0
20.11.2017 14:00:00 19,6 10,9 8 5 15 8 S 1023,2 20 60 0,0
20.11.2017 13:00:00 19,4 10,9 7 4 16 9 SSE 1023,8 20 60 -
20.11.2017 12:00:00 19,2 11,8 7 4 12 7 SSE 1024,4 20 60 0,0
20.11.2017 11:00:00 19,1 12,1 4 2 8 5 S 1024,6 20 60 0,0
20.11.2017 10:00:00 16,8 13,2 3 2 6 4 WNW 1024,5 20 48 0,0
20.11.2017 09:00:00 12,8 10,2 5 3 12 7 NNE 1024,1 17 0 0,0
20.11.2017 08:00:00 11,9 9,3 6 3 11 6 NNE 1023,6 19 0 0,0
20.11.2017 07:00:00 11,6 8,8 0 0 8 5 N 1023,1 10 0 -
20.11.2017 06:00:00 11,5 8,5 3 2 8 4 N 1022,8 16 0 0,0
20.11.2017 05:00:00 12,4 8,9 3 1 11 6 NE 1022,4 15 0 0,0
20.11.2017 04:00:00 13,1 9,6 7 4 12 6 NNE 1022,5 20 0 0,0
20.11.2017 03:00:00 12,4 9,0 5 3 10 5 NE 1022,7 20 0 0,0
20.11.2017 02:00:00 10,9 7,4 1 1 5 3 NNE 1022,7 20 0 0,0
20.11.2017 01:00:00 11,2 7,8 3 2 6 3 NNW 1023,0 20 0 -
20.11.2017 00:00:00 11,7 8,4 2 1 8 5 N 1023,2 20 0 0,0
19.11.2017 23:00:00 12,1 8,5 2 1 6 4 N 1023,0 20 0 0,0
19.11.2017 22:00:00 12,7 9,2 1 1 5 3 NW 1023,1 20 0 0,0
19.11.2017 21:00:00 13,7 9,7 1 1 8 5 NNE 1022,6 20 0 0,0
19.11.2017 20:00:00 15,0 10,4 5 3 9 5 NNE 1022,2 20 0 0,0
19.11.2017 19:00:00 16,1 10,9 5 3 7 4 N 1021,9 20 0 -
19.11.2017 18:00:00 17,7 11,2 3 1 10 6 S 1021,3 20 43 0,0
19.11.2017 17:00:00 18,9 11,2 5 3 11 6 SSE 1020,9 20 60 0,0
19.11.2017 16:00:00 19,5 10,8 7 4 15 8 SSE 1020,8 20 60 0,0
19.11.2017 15:00:00 19,7 10,6 8 4 15 8 SSE 1020,9 20 60 0,0
19.11.2017 14:00:00 19,7 9,6 9 5 16 8 S 1021,4 20 60 0,0
19.11.2017 13:00:00 19,4 9,6 8 5 17 9 SSE 1021,9 20 60 -
19.11.2017 12:00:00 19,3 9,4 11 6 18 10 SE 1022,6 20 60 0,0
19.11.2017 11:00:00 19,3 10,0 7 4 16 9 SE 1022,8 20 60 0,0
19.11.2017 10:00:00 18,0 11,8 2 1 12 6 SSE 1022,6 20 60 0,0
19.11.2017 09:00:00 13,4 10,5 3 1 8 4 NW 1022,2 20 41 0,0
19.11.2017 08:00:00 10,6 7,8 5 3 8 4 NNW 1021,7 20 0 0,0
19.11.2017 07:00:00 10,1 7,3 3 2 5 3 NNW 1021,1 20 0 -
19.11.2017 06:00:00 10,8 8,3 4 2 7 4 N 1020,9 20 0 0,0
19.11.2017 05:00:00 10,5 7,7 1 1 7 4 N 1020,7 20 0 0,0
19.11.2017 04:00:00 11,1 8,3 1 1 7 4 NNE 1020,9 20 0 0,0
19.11.2017 03:00:00 11,1 8,3 1 1 6 4 NNW 1021,0 20 0 0,0
19.11.2017 02:00:00 11,5 8,7 3 1 6 3 N 1020,8 20 0 0,0

tt = Température de l'air
td = dewpoint
ff = Vitesse du vent
fx = gusts
dd = Direction du vent
ppp = reduced air pressure
vv = visibility
sd = Ensoleillement
rr = Quantités de précipitations

stations d'obs. à proximité